Location: Rumah Dana
(3.1167°N, 113.0167°E)
Time: 04:38:36
(UTC+00:00)

USA 238 - Pass Details

Date: 20 January 2026
Orbit: 883 x 1328 km, 63.4° (Epoch: 10 January)

Event Time Altitude Azimuth Distance (km) Brightness Sun altitude
Rises 11:12:51 0° 338° (NNW) 4,238 6.9 -9.0°
Reaches altitude 10° 11:15:37 10° 338° (NNW) 3,304 6.3 -9.7°
Maximum altitude 11:23:48 88° 69° (ENE) 1,331 4.2 -11.6°
Drops below altitude 10° 11:32:02 10° 156° (SSE) 3,323 6.2 -13.5°
Sets 11:34:49 0° 157° (SSE) 4,264 6.8 -14.2°
